Home > Weather > Kabul > Past weeks

Flag for Afghanistan Weather for the Past 2 Weeks in Kabul, Afghanistan

Now
97 °F

Sunny.


Feels Like: 97 °F
Forecast: 53 / 84 °F
Wind: No wind

Location: Peshawar Airport

Current Time: Apr 30, 2016 at 11:54:27 AM

Latest Report: Apr 30, 2016 at 11:30 AM


Visibility: 3 mi

Pressure: 29.77 "Hg (24.40 "Hg at 1800m altitude)

Humidity: 30%

Dew Point: 61 °F

Location of KabulLocation

Historic Weather in Kabul — Graph

°F

Kabul Temperature Yesterday

Maximum temperature yesterday: 99 °F (at 2:30 PM)
Minimum temperature yesterday: 68 °F (at 4:29 AM)
Average temperature yesterday: 88 °F

High & Low Weather Summary for the Past Weeks

 TemperatureHumidityPressure
High99 °F (Apr 29, 2:30 PM)88% (Apr 18, 2:30 AM)29.98 "Hg (Apr 18, 2:30 AM)
Low61 °F (Apr 22, 4:30 AM)24% (Apr 23, 3:00 PM)29.62 "Hg (Apr 21, 4:30 PM)
Average78 °F47%29.80 "Hg
* Reported Apr 15 11:00 AM — Apr 30 10:30 AM, Kabul, Weather by CustomWeather, © 2016

Note: Actual official high and low records may vary slightly from our data, if they occured in-between our weather recording intervals... More about our weather records

Advertising

Kabul Weather History for the Previous 24 Hours

Scroll right to see more
 ConditionsComfort  
Time TempWeatherWind HumidityBarometerVisibility
10:30 AM
Sat, Apr 30
93 °FSunny.5 mph32%29.80 "Hg3 mi
10:00 AM91 °FSunny.5 mph36%29.80 "Hg3 mi
9:30 AM91 °FSunny.5 mph36%29.80 "Hg3 mi
9:00 AM86 °FSunny.5 mph40%29.80 "Hg3 mi
8:00 AM81 °FSunny.7 mph51%29.80 "Hg2 mi
7:30 AM81 °FSunny.7 mph51%29.80 "Hg2 mi
7:00 AM75 °FSunny.5 mph50%29.80 "Hg2 mi
6:30 AM75 °FSunny.5 mph50%29.80 "Hg2 mi
6:00 AM72 °FSunny.5 mph57%29.77 "Hg2 mi
5:30 AM72 °FSunny.5 mph57%29.77 "Hg2 mi
5:00 AM70 °FSunny.5 mph60%29.77 "Hg2 mi
4:30 AM70 °FClear.5 mph60%29.77 "Hg2 mi
2:30 AM73 °FClear.5 mph57%29.74 "Hg2 mi
2:00 AM75 °FClear.5 mph54%29.77 "Hg2 mi
1:30 AM75 °FClear.5 mph54%29.77 "Hg2 mi
1:00 AM77 °FClear.5 mph51%29.77 "Hg2 mi
12:30 AM77 °FClear.5 mph51%29.77 "Hg2 mi
12:00 AM79 °FClear.5 mph48%29.77 "Hg2 mi
11:30 PM
Fri, Apr 29
79 °FClear.5 mph48%29.77 "Hg2 mi
11:00 PM82 °FClear.5 mph45%29.77 "Hg2 mi
10:30 PM82 °FClear.5 mph45%29.77 "Hg2 mi
10:00 PM82 °FClear.5 mph45%29.77 "Hg2 mi
9:35 PM82 °FClear.5 mph45%29.77 "Hg2 mi
9:00 PM84 °FClear.5 mph43%29.77 "Hg2 mi
8:30 PM84 °FClear.5 mph43%29.77 "Hg2 mi
8:00 PM90 °FClear.5 mph36%29.74 "Hg2 mi
7:30 PM90 °FClear.5 mph36%29.74 "Hg2 mi
7:00 PM93 °FClear.No wind32%29.74 "Hg2 mi
6:30 PM93 °FClear.No wind32%29.74 "Hg2 mi
6:00 PM97 °FSunny.No wind27%29.74 "Hg5 mi
5:30 PM97 °FSunny.No wind27%29.74 "Hg5 mi
5:00 PM99 °FSunny.5 mph27%29.74 "Hg5 mi
4:30 PM99 °FSunny.5 mph27%29.74 "Hg5 mi
4:00 PM99 °FSunny.5 mph27%29.74 "Hg5 mi
3:30 PM99 °FSunny.5 mph27%29.74 "Hg5 mi
3:00 PM99 °FSunny.5 mph27%29.77 "Hg5 mi
2:30 PM99 °FSunny.5 mph27%29.77 "Hg5 mi
2:00 PM97 °FSunny.5 mph27%29.80 "Hg5 mi
1:30 PM97 °FSunny.5 mph27%29.80 "Hg5 mi
12:30 PM97 °FSunny.7 mph30%29.83 "Hg5 mi
12:00 PM95 °FSunny.7 mph30%29.83 "Hg5 mi
11:30 AM95 °FSunny.7 mph30%29.83 "Hg5 mi
11:00 AM91 °FSunny.7 mph32%29.83 "Hg5 mi
Weather by CustomWeather, © 2016

See weather overviewHow to use our weather pages